Roswell, NM

10:23 AM MST on December 07, 2016 (GMT -0700)
Roswell Industrial

Weather History for KROW - March, 2014

Change the Weather History Date:

Tuesday, March 4, 2014

  Actual Average Record
Temperature  
Mean Temperature 45 °F 50 °F  
Max Temperature 67 °F 65 °F 89 °F (2009)
Min Temperature 22 °F 35 °F 12 °F (2002)
Degree Days  
Heating Degree Days 20 15  
Month to date heating degree days 82 63  
Since 1 July heating degree days 2785 2770  
Cooling Degree Days 0 0  
Month to date cooling degree days 0 0  
Year to date cooling degree days 0 0  
Moisture  
Dew Point 23 °F    
Average Humidity 52    
Maximum Humidity 84    
Minimum Humidity 19    
Precipitation  
Precipitation 0.00 in 0.01 in 0.74 in (1937)
Month to date precipitation 0.05 0.06  
Year to date precipitation 0.07 0.86  
Sea Level Pressure  
Sea Level Pressure 29.90 in    
Wind  
Wind Speed 6 mph (SSE)    
Max Wind Speed 17 mph    
Max Gust Speed 25 mph    
Visibility 10 miles    
Events      
T = Trace of Precipitation, MM = Missing Value Source: NWS Daily Summary

Daily Weather History Graph

Daily Weather History Graph

Search for Another Location

Airport or City:

Trip Planner

Search our weather history database for the weather conditions in past years. The results will help you decide how hot, cold, wet, or windy it might be!

Date:

Astronomy

Mar. 04, 2014 Rise Set
Actual Time 6:22 AM MST 5:57 PM MST
Civil Twilight 5:57 AM MST 6:22 PM MST
Nautical Twilight 5:29 AM MST 6:51 PM MST
Astronomical Twilight 5:00 AM MST 7:19 PM MST
Moon 8:22 AM MST (3/4) 9:53 PM MST (3/4)
Length of Visible Light 12h 24m
Length of Day
11h 34m
Waxing Crescent, 15% of the Moon is Illuminated
Mar 4
Waxing Crescent
Mar 8
First Quarter
Mar 16
Full
Mar 23
Last Quarter
Mar 30
New

Hourly Weather History & Observations

Time (MST) Temp. Windchill Dew Point Humidity Pressure Visibility Wind Dir Wind Speed Gust Speed Precip Events Conditions
12:51 AM 28.0 °F 24.2 °F 19.9 °F 72% 30.09 in 10.0 mi SW 3.5 mph - N/A   Clear
1:51 AM 27.0 °F - 19.9 °F 75% 30.04 in 10.0 mi Calm Calm - N/A   Clear
2:51 AM 27.0 °F - 19.9 °F 75% 30.04 in 10.0 mi Calm Calm - N/A   Clear
3:51 AM 27.0 °F - 19.9 °F 75% 30.03 in 10.0 mi Calm Calm - N/A   Clear
4:51 AM 27.0 °F - 19.9 °F 75% 30.02 in 10.0 mi Calm Calm - N/A   Clear
5:51 AM 21.9 °F - 18.0 °F 85% 30.04 in 10.0 mi Calm Calm - N/A   Clear
6:51 AM 27.0 °F - 21.0 °F 78% 30.04 in 9.0 mi Calm Calm - N/A   Clear
7:51 AM 30.9 °F 26.2 °F 19.9 °F 64% 30.03 in 10.0 mi NE 4.6 mph - N/A   Clear
8:51 AM 36.0 °F - 19.9 °F 52% 30.03 in 10.0 mi Calm Calm - N/A   Clear
9:51 AM 43.0 °F 40.3 °F 21.9 °F 43% 29.99 in 10.0 mi ESE 4.6 mph - N/A   Clear
10:51 AM 50.0 °F - 24.1 °F 36% 29.95 in 10.0 mi SSE 9.2 mph - N/A   Clear
11:51 AM 57.9 °F - 25.0 °F 28% 29.91 in 10.0 mi SSE 6.9 mph - N/A   Clear
12:51 PM 63.0 °F - 26.1 °F 25% 29.85 in 10.0 mi SE 10.4 mph - N/A   Clear
1:51 PM 66.0 °F - 25.0 °F 21% 29.81 in 10.0 mi South 13.8 mph 23.0 mph N/A   Clear
2:51 PM 66.0 °F - 23.0 °F 20% 29.79 in 10.0 mi SSE 16.1 mph - N/A   Clear
3:51 PM 64.9 °F - 24.1 °F 21% 29.79 in 10.0 mi SSE 13.8 mph - N/A   Clear
4:51 PM 63.0 °F - 25.0 °F 24% 29.78 in 10.0 mi SSE 12.7 mph - N/A   Clear
5:51 PM 60.1 °F - 27.0 °F 28% 29.76 in 10.0 mi SE 12.7 mph - N/A   Clear
6:51 PM 57.9 °F - 27.0 °F 31% 29.78 in 10.0 mi SE 9.2 mph - N/A   Clear
7:51 PM 57.0 °F - 26.1 °F 30% 29.78 in 10.0 mi Variable 4.6 mph - N/A   Clear
8:51 PM 52.0 °F - 27.0 °F 38% 29.79 in 10.0 mi SW 8.1 mph - N/A   Clear
9:51 PM 53.1 °F - 27.0 °F 37% 29.78 in 10.0 mi West 9.2 mph - N/A   Clear
10:51 PM 51.1 °F - 28.0 °F 41% 29.77 in 10.0 mi West 6.9 mph - N/A   Clear
11:51 PM 48.0 °F - 26.1 °F 42% 29.76 in 10.0 mi Calm Calm - N/A   Scattered Clouds